Flag for U.S.A. Weather past 2 weeks in Moreno Valley, California, U.S.A.

Now
76 °F

Clear.


Feels Like: 78 °F
Forecast: 67 / 95 °F
Wind: 5 mph from Northwest

Location: Riverside / March Air Force Base

Current Time: Jul 29, 2014 at 11:10:14 PM

Latest Report: Jul 29, 2014 at 9:55 PM


Visibility: 10 mi

Pressure: 30.00 "Hg

Humidity: 44%

Dew point: 52 °F

Location of Moreno ValleyLocation

Historic Weather in Moreno Valley — Graph

°F

Moreno Valley temperature yesterday

Maximum temperature yesterday: 94 °F (at 2:58 PM)
Minimum temperature yesterday: 72 °F (at 5:58 AM)
Average temperature yesterday: 81 °F

Past Weeks' High & Low Weather Summary

 TemperatureHumidityPressure
High105 °F (Jul 24, 2:58 PM)91% (Jul 18, 5:58 AM)30.08 "Hg (Jul 18, 5:58 AM)
Low56 °F (Jul 18, 5:58 AM)9% (Jul 24, 12:58 PM)29.73 "Hg (Jul 24, 5:58 PM)
Average77 °F52%29.96 "Hg
* Reported Jul 14 9:58 PM — Jul 29 9:55 PM, Moreno Valley, Weather by CustomWeather, © 2014

Note: Actual official high and low records may vary slightly from our data, if they occured in-between our weather recording intervals... More about our weather records

Advertising

Moreno Valley weather history for previous 24 hours

 ConditionsComfort  
Time TempWeatherWind HumidityBarometerVisibility
9:55 PM
Jul 29
76 °FClear.5 mph44%30.00 "Hg10 mi
8:55 PM79 °FClear.5 mph40%29.98 "Hg10 mi
7:55 PM83 °FPassing clouds.8 mph35%29.95 "Hg10 mi
6:55 PM87 °FPartly sunny.13 mph30%29.93 "Hg10 mi
5:55 PM92 °FPartly sunny.13 mph23%29.93 "Hg10 mi
4:55 PM94 °FPartly sunny.13 mph23%29.93 "Hg10 mi
3:58 PM94 °FPassing clouds.13 mph23%29.93 "Hg10 mi
2:58 PM94 °FOvercast.9 mph23%29.95 "Hg10 mi
1:58 PM94 °FScattered clouds.10 mph20%29.96 "Hg10 mi
12:58 PM92 °FScattered clouds.9 mph21%29.99 "Hg10 mi
11:58 AM92 °FSunny.7 mph20%30.00 "Hg10 mi
10:58 AM89 °FSunny.1 mph21%30.01 "Hg10 mi
9:58 AM86 °FSunny.1 mph23%30.02 "Hg10 mi
8:58 AM81 °FSunny.2 mph21%30.03 "Hg10 mi
7:58 AM76 °FSunny.1 mph25%30.03 "Hg10 mi
6:58 AM71 °FSunny.No wind27%30.03 "Hg10 mi
5:58 AM67 °FClear.No wind31%30.02 "Hg10 mi
4:58 AM67 °FClear.1 mph31%30.01 "Hg10 mi
3:58 AM70 °FClear.No wind25%30.01 "Hg10 mi
2:58 AM70 °FClear.No wind25%30.07 "Hg10 mi
1:58 AM71 °FClear.No wind22%30.03 "Hg10 mi
12:58 AM73 °FClear.No wind20%30.03 "Hg10 mi
11:58 PM
Jul 28
72 °FClear.5 mph22%30.07 "Hg10 mi
Weather by CustomWeather, © 2014

See weather overviewHow to use our weather pages